TimeEDT,TemperatureF,Dew PointF,Humidity,Sea Level PressureIn,VisibilityMPH,Wind Direction,Wind SpeedMPH,Gust SpeedMPH,PrecipitationIn,Events,Conditions,WindDirDegrees,DateUTC
12:53 AM,48.9,39.9,71,29.86,10.0,Calm,Calm,-,N/A,,Mostly Cloudy,0,2013-10-20 04:53:00
1:53 AM,48.0,39.0,71,29.89,10.0,Calm,Calm,-,N/A,,Partly Cloudy,0,2013-10-20 05:53:00
2:53 AM,46.9,37.9,71,29.90,10.0,Calm,Calm,-,N/A,,Partly Cloudy,0,2013-10-20 06:53:00
3:53 AM,46.9,39.0,74,29.91,10.0,West,4.6,-,N/A,,Overcast,270,2013-10-20 07:53:00
4:53 AM,46.0,37.0,71,29.93,10.0,WSW,3.5,-,N/A,,Partly Cloudy,240,2013-10-20 08:53:00
5:53 AM,44.1,36.0,73,29.95,10.0,West,4.6,-,N/A,,Clear,270,2013-10-20 09:53:00
6:53 AM,41.0,36.0,82,29.96,10.0,Calm,Calm,-,N/A,,Clear,0,2013-10-20 10:53:00
7:53 AM,39.0,37.0,93,29.98,10.0,Calm,Calm,-,N/A,,Clear,0,2013-10-20 11:53:00
8:53 AM,46.9,37.9,71,30.00,10.0,WSW,6.9,-,N/A,,Clear,250,2013-10-20 12:53:00
9:53 AM,51.1,37.9,61,30.01,10.0,Variable,3.5,-,N/A,,Clear,0,2013-10-20 13:53:00
10:53 AM,54.0,37.9,55,30.02,10.0,Variable,5.8,-,N/A,,Clear,0,2013-10-20 14:53:00
11:53 AM,57.0,39.0,51,30.02,10.0,Variable,6.9,-,N/A,,Partly Cloudy,0,2013-10-20 15:53:00
12:53 PM,59.0,37.9,46,30.02,10.0,Variable,6.9,-,N/A,,Scattered Clouds,0,2013-10-20 16:53:00
1:53 PM,57.0,37.0,47,30.01,10.0,Calm,Calm,-,N/A,,Mostly Cloudy,0,2013-10-20 17:53:00
2:53 PM,60.1,36.0,41,30.00,10.0,Variable,3.5,-,N/A,,Mostly Cloudy,0,2013-10-20 18:53:00
3:53 PM,60.1,34.0,38,29.99,10.0,SW,6.9,-,N/A,,Mostly Cloudy,230,2013-10-20 19:53:00
4:53 PM,57.9,36.0,44,30.00,10.0,SW,4.6,-,N/A,,Scattered Clouds,220,2013-10-20 20:53:00
5:53 PM,54.0,39.9,59,30.00,10.0,Calm,Calm,-,N/A,,Scattered Clouds,0,2013-10-20 21:53:00
6:53 PM,48.0,41.0,77,30.02,10.0,SW,3.5,-,0.00,,Mostly Cloudy,220,2013-10-20 22:53:00
7:53 PM,44.1,41.0,89,30.04,10.0,Calm,Calm,-,N/A,,Clear,0,2013-10-20 23:53:00
8:53 PM,41.0,39.0,93,30.06,10.0,Calm,Calm,-,N/A,,Clear,0,2013-10-21 00:53:00
9:53 PM,39.9,37.9,93,30.07,10.0,Calm,Calm,-,N/A,,Clear,0,2013-10-21 01:53:00
10:53 PM,37.9,36.0,93,30.08,8.0,Calm,Calm,-,N/A,,Clear,0,2013-10-21 02:53:00
11:53 PM,37.9,36.0,93,30.08,7.0,Calm,Calm,-,N/A,,Clear,0,2013-10-21 03:53:00